Location: Piotrkow Trybunalski
(51.4000°N, 19.6830°E)
Time: 23:45:28
(UTC+01:00)

Explorer 7 - Pass Details

Date: 17 December 2025
Orbit: 433 x 550 km, 50.2° (Epoch: 13 January)

Event Time Altitude Azimuth Distance (km) Brightness Sun altitude
Rises 16:29:42 0° 240° (WSW) 2,487 12.7 -8.2°
Reaches altitude 10° 16:31:55 10° 234° (SW) 1,594 10.8 -8.5°
Maximum altitude 16:35:22 46° 161° (SSE) 611 7.1 -9.0°
Enters shadow 16:38:31 11° 88° (E) 1,473 8.4 -9.4°
